This is the latest recevied weather packets stored in our database for station/object KE5VT. If no packets are shown the sender has not sent any weather packets the latest 10 day(s).
| Time | Temp. | Humidity | Pressure | Rain* | Wind** | Luminosity | Snow |
|---|---|---|---|---|---|---|---|
| 1788108857 | 26.11° C | 87% | 1019.6 hPa | 0 mm | - | 371 W/m² | - |
| 1788108553 | 25.56° C | 87% | 1019.5 hPa | 0 mm | - | 675 W/m² | - |
| 1788108248 | 25.56° C | 88% | 1019.6 hPa | 0 mm | - | 289 W/m² | - |
| 1788107945 | 25.56° C | 88% | 1019.6 hPa | 0 mm | - | 636 W/m² | - |
| 1788107641 | 25.56° C | 88% | 1019.8 hPa | 0 mm | - | 209 W/m² | - |
| 1788107340 | 25.56° C | 88% | 1019.6 hPa | 0 mm | - | 262 W/m² | - |
| 1788107036 | 25.56° C | 88% | 1019.7 hPa | 0 mm | - | 255 W/m² | - |
| 1788106731 | 25° C | 88% | 1019.8 hPa | 0 mm | - | 222 W/m² | - |
| 1788106430 | 25.56° C | 87% | 1019.9 hPa | 0 mm | - | 218 W/m² | - |
| 1788106126 | 25° C | 87% | 1019.9 hPa | 0 mm | - | 223 W/m² | - |
| 1788105822 | 25.56° C | 88% | 1019.9 hPa | 0 mm | - | 183 W/m² | - |
| 1788105517 | 25.56° C | 88% | 1019.9 hPa | 0 mm | - | 233 W/m² | - |
| 1788105213 | 25.56° C | 87% | 1019.8 hPa | 0 mm | - | 227 W/m² | - |
| 1788104913 | 25.56° C | 88% | 1019.7 hPa | 0 mm | - | 282 W/m² | - |
| 1788104609 | 25.56° C | 88% | 1019.8 hPa | 0 mm | - | 244 W/m² | - |
| 1788104306 | 25° C | 89% | 1019.8 hPa | 0 mm | - | 229 W/m² | - |
| 1788104001 | 25° C | 89% | 1020 hPa | 0 mm | - | 191 W/m² | - |
| 1788103699 | 25° C | 89% | 1019.8 hPa | 0 mm | - | 217 W/m² | - |
| 1788103395 | 25° C | 90% | 1019.8 hPa | 0 mm | - | 246 W/m² | - |
| 1788103095 | 24.44° C | 92% | 1019.8 hPa | 0 mm | - | 189 W/m² | - |
| 1788102794 | 24.44° C | 92% | 1019.8 hPa | 0 mm | - | 218 W/m² | - |
| 1788102489 | 23.89° C | 94% | 1019.7 hPa | 0 mm | - | 171 W/m² | - |
| 1788102188 | 23.89° C | 94% | 1019.7 hPa | 0 mm | - | 98 W/m² | - |
| 1788101883 | 24.44° C | 93% | 1019.8 hPa | 0 mm | - | 91 W/m² | - |
| 1788101578 | 24.44° C | 93% | 1019.8 hPa | 0 mm | - | 152 W/m² | - |
* Rain latest hour (hover to see other rain measurements)
** Current wind speed in m/s (hover to see current wind gust speed)